Theta_e
330 329 330 328 326 325 324 322 322 322 322 321 320 319 318 317 315 314 314 315 314 313 313 312 310 309 308 307 306 305 304 304 304 304 304 304 304 304 303 303 303 303 303 303 302 302 302 302 302 302 302 301 301 301 301 301 301 300 300 300 300 300 300 301 301 302 302 301 301 301 301 301 301 301 301 301 301 300 301 301 301 301 301 302 301
329 329 329 327 325 324 323 321 321 321 321 320 319 318 317 315 314 313 314 314 313 312 312 311 309 309 307 306 305 304 303 303 303 303 304 303 304 303 303 302 302 302 302 302 302 302 302 302 302 302 302 302 301 301 301 300 300 300 300 300 300 300 300 301 301 302 302 302 302 301 301 301 301 301 301 301 301 300 301 301 301 301 301 301 301
327 327 327 326 324 323 321 320 320 320 320 319 318 317 316 314 313 313 314 313 312 312 311 310 309 308 307 306 304 303 303 303 303 303 303 303 303 303 303 303 302 302 302 302 302 302 302 302 303 302 302 302 301 301 301 301 300 300 300 300 300 300 300 301 301 301 302 302 302 301 301 301 301 301 301 300 300 300 301 301 301 301 301 301 301
326 326 325 324 323 321 320 321 320 319 318 318 317 316 314 313 312 312 313 312 312 311 311 310 309 308 306 305 303 303 303 302 302 302 302 303 303 303 302 302 302 302 302 302 302 302 302 302 302 302 302 302 301 301 300 300 300 300 300 300 299 299 300 301 301 301 302 302 302 301 301 301 301 301 300 300 300 300 300 301 301 301 301 301 301
325 325 323 322 321 320 319 319 319 318 317 317 316 314 313 313 311 312 312 312 311 311 310 309 308 307 306 304 303 303 302 302 302 302 302 302 302 302 302 302 302 302 302 302 302 302 302 302 302 302 302 301 301 301 300 300 300 300 300 300 299 299 300 301 301 301 302 302 302 301 301 301 301 300 300 300 300 300 300 300 300 300 300 301 301
323 322 321 320 319 319 318 317 318 318 317 316 315 313 313 312 311 311 312 311 310 310 309 308 308 307 305 304 303 302 302 302 302 302 302 302 302 302 302 302 302 302 302 302 302 302 302 302 302 301 301 301 300 300 300 300 301 300 300 300 299 299 300 300 301 301 301 301 301 301 301 301 300 300 300 300 299 299 299 300 300 300 300 300 301
322 320 320 318 318 318 316 316 317 317 316 315 314 312 311 311 311 311 311 310 309 309 308 308 307 306 305 304 303 302 301 302 302 301 302 302 302 302 302 302 302 302 302 301 301 302 302 302 301 300 300 300 299 299 299 299 300 299 299 299 298 299 300 300 300 300 301 301 301 300 301 300 300 300 300 299 299 299 299 299 300 300 300 300 300
321 320 319 318 317 316 315 315 317 317 315 314 312 311 310 310 310 311 310 309 309 308 308 308 307 306 305 304 303 302 302 302 301 302 302 302 302 302 302 302 302 302 301 301 301 302 302 301 300 299 298 297 296 296 295 296 298 298 297 297 298 299 299 299 299 300 300 301 301 300 300 300 299 300 299 299 299 299 299 299 299 300 299 300 300
321 319 317 316 316 316 315 315 315 315 314 312 311 310 309 309 310 310 309 309 308 308 308 307 306 306 305 304 303 302 302 302 302 301 302 302 302 302 302 302 302 301 301 301 301 301 301 300 298 297 295 294 293 293 292 292 294 295 295 296 297 298 298 299 299 299 300 300 300 300 300 299 299 299 299 299 298 298 299 299 299 300 299 299 300
319 316 315 315 316 316 315 314 314 313 312 311 310 309 309 310 310 309 309 309 308 308 308 307 306 306 305 304 303 303 302 302 301 301 302 302 302 302 302 301 301 301 301 301 301 301 301 300 297 296 295 295 293 292 291 290 290 291 291 292 294 296 297 298 298 298 299 300 300 300 299 299 299 299 298 298 298 298 299 299 299 300 299 299 300
317 316 315 315 314 314 313 312 312 312 312 310 309 308 309 310 309 309 309 308 308 308 307 306 306 306 305 305 304 303 303 302 300 300 301 301 302 302 302 301 301 301 301 302 301 301 301 300 299 298 297 297 297 295 293 291 290 290 291 291 291 293 294 296 297 298 299 300 300 299 299 299 298 298 298 297 298 298 298 299 299 299 299 299 300
317 316 314 313 313 312 312 312 311 310 310 309 308 309 309 309 308 308 308 308 308 308 307 307 306 306 305 305 304 304 303 300 298 298 299 301 302 302 302 302 302 301 301 301 301 301 301 300 300 299 296 296 298 298 297 295 293 293 294 293 292 292 292 293 294 296 297 299 300 299 298 298 298 297 297 297 297 298 298 299 299 299 299 299 299
315 314 313 312 312 312 312 312 310 309 309 308 308 308 308 308 308 307 307 307 307 307 307 306 306 306 306 305 304 304 302 298 297 297 298 299 301 302 302 302 302 302 301 301 301 301 301 300 300 300 298 297 297 297 298 298 296 296 296 296 295 295 294 293 293 294 296 298 299 298 298 298 297 297 297 297 297 297 298 298 299 299 299 299 299
314 313 313 312 311 312 313 311 310 309 309 308 308 308 307 307 307 306 307 307 307 307 307 307 307 306 306 305 304 303 301 298 297 298 298 298 300 301 302 303 302 302 301 301 301 301 300 301 300 299 299 297 295 294 295 297 298 297 297 297 297 297 296 294 293 294 295 297 298 297 297 297 297 296 296 296 297 297 297 298 299 299 299 299 299
314 313 312 311 312 312 312 311 310 309 308 308 308 307 306 306 306 306 306 306 307 307 306 306 305 305 305 304 303 304 301 298 298 299 298 298 299 301 303 303 302 302 301 301 301 300 300 300 299 299 300 297 292 290 292 296 298 298 297 297 298 298 297 294 292 292 293 295 296 296 296 295 295 295 296 296 296 297 297 298 298 298 298 298 298
314 313 312 311 311 312 312 311 310 309 308 307 307 306 306 305 305 304 304 304 305 305 304 303 303 303 303 303 303 304 302 298 298 299 298 298 298 300 303 302 302 302 301 300 300 300 300 301 299 299 299 295 291 289 290 295 298 297 297 298 298 298 297 295 293 292 291 292 293 293 293 293 293 295 295 295 295 296 297 298 298 298 299 298 299
314 312 311 311 311 311 311 310 308 308 307 307 306 305 304 302 300 299 300 302 303 303 303 303 302 302 303 303 304 305 302 298 298 299 298 298 298 300 303 303 302 302 301 300 300 299 299 299 299 300 299 294 291 289 290 295 298 297 298 299 298 298 297 296 296 295 293 293 294 294 294 295 295 296 296 295 294 295 297 298 298 298 299 299 299
314 312 312 311 310 309 309 307 307 307 306 306 305 304 302 299 297 298 301 302 303 303 303 303 303 303 304 304 304 305 302 299 298 299 299 299 299 301 303 302 302 302 301 300 300 299 296 294 296 298 298 293 290 289 290 294 298 298 298 299 298 298 297 295 297 296 295 296 297 297 297 297 296 297 296 296 295 295 297 298 298 298 299 299 299
314 313 312 310 309 308 307 307 306 305 305 305 304 301 299 298 297 299 301 301 302 303 303 303 303 303 304 304 304 305 303 300 298 299 299 299 299 301 303 303 302 302 301 300 300 299 296 294 293 294 294 292 290 290 290 292 296 298 298 298 298 297 295 294 296 297 297 298 299 298 298 297 297 297 296 296 295 295 296 297 298 298 298 299 299
313 312 311 309 309 307 307 306 305 304 304 303 302 300 300 299 299 299 300 300 301 302 302 303 304 304 304 305 304 304 304 302 299 299 300 299 299 301 303 303 302 302 301 300 300 300 299 297 294 292 292 292 290 290 290 291 294 298 297 296 296 295 293 293 295 296 298 299 299 298 298 298 297 297 296 296 296 296 296 297 297 297 298 298 299
312 311 310 309 308 307 306 306 305 304 303 302 302 302 302 301 300 300 300 301 301 302 303 304 304 304 304 305 304 304 304 303 300 300 300 299 299 300 303 303 302 301 301 300 300 300 300 300 297 293 292 292 290 290 290 290 293 296 296 293 293 293 292 294 296 298 299 299 298 298 298 298 297 297 297 296 296 296 297 297 296 297 298 298 299
311 311 310 309 308 307 306 306 304 304 303 303 304 304 303 302 300 300 301 301 302 303 303 303 303 304 304 304 303 303 303 302 301 300 299 299 299 299 301 303 302 301 300 300 300 299 299 300 298 293 292 292 290 290 290 290 292 295 294 292 292 292 293 295 297 298 299 299 298 298 298 298 297 297 297 297 297 297 298 296 296 297 297 298 298
311 310 309 308 308 307 306 305 304 304 304 304 305 304 303 302 301 300 301 302 302 303 303 303 303 303 303 302 302 302 302 301 300 299 299 299 298 298 300 301 301 300 300 300 300 299 299 299 297 293 292 292 291 291 290 290 293 294 293 291 292 293 295 297 298 298 299 299 298 298 298 298 298 297 297 297 298 298 297 297 296 297 297 297 298
311 310 309 308 308 307 305 304 304 304 304 304 305 305 304 303 301 300 301 302 302 302 302 302 302 302 302 301 301 301 300 299 298 298 298 298 297 297 298 300 299 299 300 301 299 299 299 299 296 293 293 293 292 291 291 291 292 293 292 292 293 295 297 298 298 298 299 298 298 298 298 298 298 298 298 298 297 297 297 297 297 297 296 297 297
311 310 309 307 307 306 305 304 305 305 304 305 305 306 304 303 301 300 300 301 301 301 301 301 302 302 301 300 300 300 299 298 297 295 294 295 296 296 298 298 297 297 299 300 300 299 299 297 295 293 294 294 293 292 294 294 293 292 292 293 295 297 298 298 298 298 298 298 298 298 298 298 298 298 298 298 297 297 297 297 297 297 297 297 297
310 309 308 307 307 306 305 305 305 305 305 305 306 305 304 302 301 300 301 300 300 300 300 300 301 300 299 299 299 299 298 299 297 294 293 294 296 297 297 297 296 295 297 299 298 297 295 294 294 294 294 294 294 295 296 296 294 293 294 296 297 298 298 297 297 297 298 298 298 298 298 298 298 298 298 297 297 297 297 297 297 297 297 297 297
310 309 308 307 307 306 306 306 305 305 305 305 305 305 304 302 302 301 301 300 300 299 299 299 299 299 299 299 299 298 298 299 298 296 295 296 296 296 296 296 295 294 296 297 296 295 295 294 294 295 294 294 294 295 295 295 295 296 297 297 298 298 297 296 296 297 298 298 297 297 298 298 298 298 298 297 297 297 297 297 297 298 298 297 297
310 309 309 308 307 306 306 306 305 305 305 305 305 305 304 303 303 302 302 302 301 300 299 299 298 299 299 299 299 299 298 298 298 298 297 297 297 296 296 296 295 295 296 297 297 297 297 296 295 295 296 296 296 296 297 298 298 298 298 298 298 298 297 297 297 298 298 297 297 297 298 298 298 298 298 297 297 297 297 297 297 297 298 297 297
309 309 309 308 307 306 306 306 305 305 305 305 305 305 305 304 303 302 302 302 302 301 300 299 298 298 299 299 299 299 298 298 298 298 297 297 297 297 297 297 297 297 298 299 299 299 299 298 298 298 298 298 298 299 299 299 299 299 299 299 298 298 298 297 298 298 297 296 297 297 297 298 298 298 298 297 297 297 297 297 297 297 298 298 297
309 309 308 308 307 306 306 305 305 305 305 306 305 305 304 304 303 303 303 302 302 302 301 300 299 299 299 299 299 299 298 298 297 296 296 296 297 297 297 297 298 298 298 298 297 298 299 300 300 299 299 299 299 299 299 299 299 299 299 299 298 298 298 298 298 297 297 297 297 297 297 297 298 298 298 297 297 297 297 297 297 297 297 297 297
308 308 308 307 306 305 305 305 305 305 305 306 306 306 304 303 302 303 303 303 302 301 301 300 299 298 299 299 299 298 298 298 296 294 293 293 295 297 297 297 297 298 297 295 295 297 299 299 299 299 299 299 299 299 298 298 298 298 299 299 299 298 298 298 298 297 297 297 298 297 297 298 298 298 298 297 297 297 298 297 297 297 297 297 297
308 308 308 307 306 305 305 305 305 305 306 306 307 306 305 304 303 302 302 303 302 301 301 300 299 298 298 299 298 297 296 296 294 292 291 291 292 294 295 296 296 296 295 294 295 297 298 299 299 299 299 299 299 299 299 299 299 299 299 299 299 299 299 299 298 298 298 298 298 297 298 298 298 297 297 297 297 297 297 297 297 297 297 296 296
309 308 307 306 305 304 304 305 305 305 306 307 307 307 306 305 304 303 301 301 302 301 301 300 300 298 297 297 297 297 295 294 293 292 290 290 291 293 294 294 294 294 294 294 296 297 298 299 300 299 299 299 299 299 299 299 299 300 300 299 299 299 299 299 299 299 299 298 298 298 298 298 298 298 298 298 298 297 297 297 297 297 297 297 296
309 308 307 306 305 304 304 305 305 306 307 307 307 307 306 306 305 304 302 301 300 300 301 300 300 300 298 295 296 297 296 295 295 294 292 291 291 292 293 294 293 293 293 294 296 298 299 299 300 300 300 300 300 300 300 300 300 300 300 299 299 300 300 299 299 299 299 298 299 299 298 298 298 298 298 298 298 298 297 297 298 297 297 297 296
308 308 307 306 305 304 304 304 305 306 307 307 307 307 306 305 305 304 303 302 301 301 301 300 300 301 299 296 295 297 297 296 297 297 296 294 292 291 292 293 293 293 293 294 296 298 299 299 300 300 300 300 300 300 300 300 300 300 300 300 300 300 299 299 299 299 299 299 299 299 298 298 298 298 298 298 298 298 297 298 297 297 297 297 296
308 307 306 305 305 305 304 304 305 306 306 307 306 306 305 305 305 304 304 303 302 302 302 300 300 300 299 296 295 297 298 298 298 299 299 298 296 293 291 292 294 295 295 295 296 297 298 299 299 300 300 300 300 300 300 300 300 300 300 300 300 299 299 299 299 299 299 298 298 298 298 298 298 298 298 298 298 298 298 298 297 297 297 296 296
308 307 306 305 305 305 305 305 305 306 306 306 306 305 305 304 304 304 303 303 303 302 301 301 300 299 297 296 296 298 298 299 299 299 299 299 299 296 293 293 294 295 296 296 297 297 298 298 299 299 299 299 299 300 300 300 300 300 300 299 299 299 300 299 298 298 298 298 298 299 299 299 299 298 298 298 298 298 298 297 297 297 297 296 296
308 307 306 305 305 305 305 305 305 305 305 305 305 305 305 304 304 303 303 303 302 301 300 300 299 297 296 296 297 298 299 299 299 299 299 299 299 298 296 294 295 296 296 296 297 297 297 298 298 299 299 299 299 300 299 299 299 300 299 299 299 299 299 299 298 299 299 299 299 299 299 299 299 299 298 298 298 298 297 297 297 297 297 297 297
308 307 306 305 305 305 304 304 304 304 304 304 305 305 304 304 304 303 303 303 301 300 300 300 299 298 297 297 297 298 298 298 298 299 299 299 299 299 297 296 296 296 296 296 296 296 296 297 298 298 299 299 299 299 299 299 299 299 299 299 299 299 299 299 299 299 299 299 299 299 299 299 299 299 298 298 298 298 298 298 297 297 297 297 297
308 306 306 305 305 304 304 303 303 303 303 303 304 304 304 304 304 303 303 303 302 300 300 301 300 300 300 299 299 299 299 298 299 299 299 299 299 299 298 297 297 297 296 296 296 296 296 297 298 298 299 299 299 299 299 299 299 299 299 299 299 299 299 299 299 299 299 299 299 299 299 299 299 298 298 298 299 298 298 298 297 297 297 297 297
307 306 305 305 304 303 303 303 302 303 303 303 304 304 304 303 303 303 303 303 302 301 300 300 300 301 300 300 300 300 299 299 299 299 299 299 299 299 298 298 297 297 297 296 295 295 296 297 298 299 299 299 299 299 299 299 299 299 299 299 299 299 299 299 299 299 299 299 299 299 299 299 299 298 298 298 298 298 298 298 298 298 298 298 298
307 306 305 304 303 302 302 302 302 302 302 302 303 304 304 303 303 303 303 302 302 301 301 300 301 301 301 300 300 300 299 299 299 299 299 299 299 299 299 298 298 297 297 296 296 295 296 297 298 298 298 299 299 299 299 299 299 299 299 299 299 299 299 299 299 299 299 299 299 299 299 298 298 298 298 298 298 298 298 298 298 298 298 298 298
307 306 305 303 302 302 302 302 302 301 301 301 302 303 303 302 302 302 302 302 301 301 301 301 301 301 301 300 300 299 299 300 300 300 300 300 299 299 299 298 298 298 297 297 296 296 296 297 297 298 298 298 299 299 299 299 299 299 299 299 299 299 299 299 299 299 299 299 299 299 299 298 298 299 299 298 298 298 298 298 298 298 298 298 298
306 305 304 303 302 302 301 301 301 301 301 301 302 302 302 301 301 301 301 301 300 300 301 301 301 301 300 299 299 298 298 299 299 299 299 299 299 299 299 298 298 298 298 297 296 295 295 296 297 297 298 298 299 299 299 299 299 299 299 299 299 299 299 299 299 299 299 299 299 299 299 298 298 299 299 299 299 299 298 299 299 298 298 298 298
306 304 303 302 302 301 301 301 301 301 301 301 301 301 301 300 300 301 301 300 300 300 300 301 301 300 299 299 299 298 298 298 298 298 298 298 299 299 299 299 299 298 297 296 295 295 296 297 297 298 298 298 298 299 299 298 299 299 300 299 299 299 299 299 299 298 298 298 298 298 299 299 299 299 299 299 299 299 299 299 299 298 298 298 298
306 304 303 303 303 302 302 301 300 300 300 300 300 301 300 300 300 300 300 300 300 300 300 300 300 299 299 299 299 299 299 298 298 298 298 298 299 299 298 298 297 296 295 295 296 297 298 298 298 298 299 299 299 298 298 298 299 300 300 300 300 300 300 299 299 298 298 298 298 298 298 298 299 298 298 298 298 298 298 298 298 298 297 297 297
305 304 303 303 303 303 302 302 301 300 300 300 300 300 300 299 299 299 299 299 299 299 299 299 299 299 299 299 299 299 299 299 298 298 298 297 297 297 296 296 295 296 296 297 298 298 299 299 299 299 299 298 298 298 298 298 299 300 300 300 301 301 300 300 299 298 298 298 298 298 298 298 298 298 298 298 298 298 298 298 297 297 297 297 297
304 303 303 302 302 302 302 302 301 301 300 300 300 300 299 299 299 299 298 298 298 298 298 298 298 299 299 299 299 299 299 299 298 297 295 294 294 294 295 296 297 298 298 298 299 299 299 299 298 298 298 298 298 298 298 298 298 299 300 300 300 300 299 298 298 297 297 297 297 297 297 297 297 297 297 297 297 297 297 297 297 297 297 297 297
304 303 302 302 302 303 303 303 302 301 300 300 300 300 300 299 299 299 298 298 298 298 298 298 298 298 299 299 299 299 299 299 298 296 294 294 294 295 296 297 299 299 299 299 299 299 299 298 298 298 298 298 298 297 298 297 298 298 299 299 299 298 298 298 297 297 297 297 297 296 296 297 297 297 297 297 297 296 296 296 296 297 296 296 297
304 303 303 302 303 303 303 303 302 302 301 301 301 301 300 299 299 298 298 298 297 297 297 298 298 298 299 299 299 299 299 299 299 298 297 296 297 297 298 298 299 299 299 299 299 299 299 298 298 298 298 298 298 298 298 297 298 298 298 298 298 298 297 297 297 297 297 297 296 296 296 296 296 296 296 296 296 296 296 296 296 296 296 296 296
305 304 304 303 303 303 303 303 302 302 301 301 300 300 299 298 298 298 298 298 298 298 298 298 298 299 299 300 300 299 300 300 300 299 299 299 299 299 299 299 299 299 299 299 299 299 299 298 298 298 298 298 298 298 297 297 297 298 297 297 297 297 297 297 297 297 296 296 296 296 296 296 296 296 296 296 296 296 296 295 295 295 295 295 296
Wind_Speed
18 18 17 16 18 19 17 19 25 29 28 26 25 24 22 20 18 17 15 14 15 15 15 15 14 14 14 13 12 12 12 12 12 11 11 11 11 11 10 10 10 10 10 10 9 9 10 10 10 9 8 8 8 8 8 8 8 9 8 8 9 8 9 9 8 10 12 13 14 15 16 18 18 19 22 24 25 28 29 27 26 28 28 29 30
17 18 18 18 19 19 19 23 28 28 28 27 26 25 23 21 19 17 14 14 15 15 15 15 15 14 14 13 12 12 12 12 12 11 12 12 11 10 10 10 11 11 10 10 10 9 9 9 9 8 8 8 8 9 9 9 9 9 8 8 9 9 9 9 9 11 13 14 15 16 16 17 18 20 22 24 26 29 29 26 26 27 29 31 31
17 17 17 18 20 20 22 26 28 28 28 27 26 25 23 21 20 17 14 14 15 15 15 16 15 14 14 13 13 13 13 12 12 12 12 12 11 10 10 10 10 10 10 10 9 9 8 8 8 7 7 8 8 9 9 9 9 9 9 8 9 9 8 8 9 11 13 14 15 16 17 18 19 20 22 23 26 28 27 26 26 27 29 32 32
17 17 16 17 17 20 24 28 29 28 29 27 26 26 24 22 20 16 14 15 15 15 15 15 15 14 14 14 14 13 13 13 12 12 12 12 11 11 11 10 10 10 10 9 9 8 8 8 8 7 7 8 8 9 9 9 8 9 10 9 9 9 9 8 9 10 12 14 15 16 17 18 19 20 22 24 25 25 26 26 26 26 29 33 33
19 18 18 18 18 21 26 29 29 29 29 28 27 27 24 22 20 15 14 15 15 16 16 15 15 14 14 14 14 14 14 13 13 13 12 11 11 11 11 10 10 9 9 9 8 8 8 8 8 7 8 8 8 9 9 9 8 10 11 10 10 10 9 9 10 11 12 13 15 16 17 17 18 20 23 25 26 25 25 26 26 26 29 32 32
19 19 20 20 21 25 28 29 30 30 29 29 28 27 24 22 19 14 14 16 16 16 16 15 15 14 14 14 14 14 14 14 13 13 12 12 11 11 11 10 10 9 8 8 8 8 8 8 8 8 8 8 9 9 9 9 8 9 10 10 11 11 10 10 11 11 12 13 14 16 17 17 19 20 22 25 26 27 27 27 26 26 28 31 32
21 22 23 23 24 29 30 31 32 31 29 29 28 26 25 22 17 13 14 16 16 16 16 15 14 14 14 14 14 15 14 14 13 13 12 12 11 11 11 10 9 8 8 8 8 7 8 8 8 8 8 8 9 9 10 9 8 9 10 11 12 12 11 11 11 12 12 12 13 15 16 17 19 20 22 24 25 25 26 27 28 28 29 31 32
24 24 24 26 29 31 31 32 33 31 30 29 28 27 25 20 15 13 15 16 16 16 16 16 15 14 14 14 15 15 15 14 14 13 12 12 12 11 11 10 9 8 7 7 7 7 8 8 8 7 8 9 10 10 11 10 8 9 10 11 11 12 12 12 12 12 13 13 13 15 16 17 19 20 22 24 25 25 25 26 27 28 30 31 31
25 23 23 28 31 32 32 32 32 31 31 30 28 26 23 17 14 14 15 15 16 16 16 16 16 15 15 15 14 14 14 14 13 13 13 12 12 11 11 10 9 8 7 7 7 7 8 7 7 6 7 10 11 11 12 13 11 9 10 10 11 11 12 12 12 13 13 13 13 15 16 18 20 21 22 24 25 26 26 25 25 26 29 31 30
26 26 27 31 33 33 33 32 32 32 31 30 29 26 21 16 15 15 15 15 16 17 17 17 16 16 16 15 15 14 13 13 14 15 14 13 12 11 11 10 9 8 7 7 7 7 7 6 6 6 8 10 11 12 13 13 12 11 11 11 11 11 11 12 12 13 13 12 14 15 16 17 20 21 22 23 25 26 27 25 24 26 27 28 28
28 29 30 32 33 33 33 32 31 32 31 30 29 24 19 16 16 15 15 16 17 17 18 18 17 16 16 15 15 14 12 14 18 19 16 14 12 11 11 10 8 7 7 7 7 6 6 5 5 6 7 7 8 10 12 12 11 11 11 12 12 11 11 10 11 12 12 12 13 15 16 18 20 20 21 23 24 26 27 25 24 26 27 26 25
29 30 32 33 34 33 33 32 31 30 30 29 26 21 18 17 16 16 17 17 17 18 18 18 17 17 16 15 15 13 12 16 20 19 18 16 13 11 10 9 8 7 6 6 6 6 5 5 4 4 6 8 7 7 9 10 10 11 10 10 11 12 12 12 11 11 11 12 13 14 15 17 19 20 22 24 24 25 26 24 24 26 27 26 26
28 29 31 32 31 30 31 30 28 27 27 25 22 19 18 18 17 17 18 18 18 19 18 18 18 17 16 15 14 13 14 18 19 17 17 17 15 11 9 8 7 6 6 6 5 5 4 4 4 4 5 8 8 7 7 7 8 9 9 8 8 10 13 14 13 12 11 11 12 14 15 16 18 20 22 23 24 25 25 23 24 25 25 25 29
26 27 27 27 26 27 28 26 24 23 23 22 21 20 19 18 18 18 19 19 20 19 19 18 17 16 16 16 14 13 16 20 18 16 15 15 14 11 8 7 6 6 5 5 5 4 4 3 4 4 4 6 8 9 8 7 6 7 8 7 6 7 10 12 13 12 11 10 11 13 14 15 16 17 20 21 23 24 24 23 24 26 26 26 27
25 25 24 24 24 25 24 24 23 23 22 22 22 21 19 19 18 18 18 20 21 21 22 21 20 19 18 17 14 13 16 20 19 17 16 14 12 10 7 7 6 5 5 5 4 4 3 3 3 4 4 5 9 11 9 6 6 6 7 7 6 6 7 11 12 12 11 10 11 12 12 13 14 16 19 21 22 24 23 22 22 24 25 25 24
25 26 25 24 24 24 23 23 23 23 23 23 21 20 19 19 19 20 22 24 25 26 26 26 26 24 20 18 15 13 15 20 20 18 17 15 12 9 7 7 6 5 5 4 4 3 3 3 3 3 4 5 9 10 9 7 5 6 7 7 7 6 7 12 14 15 14 12 12 13 13 14 17 17 19 23 25 25 23 21 21 22 23 24 23
26 27 27 25 25 24 24 24 24 24 24 23 21 20 20 21 23 24 25 25 26 26 26 25 25 23 19 18 16 14 16 20 20 18 18 16 14 10 7 7 7 5 5 5 4 3 3 3 3 3 3 5 8 9 9 8 5 7 7 7 9 9 10 13 15 16 17 16 15 17 17 18 20 19 19 22 25 25 23 22 24 24 22 22 22
25 26 27 26 25 25 26 27 26 25 24 22 20 21 22 23 24 24 23 22 22 21 21 20 19 20 19 18 17 14 16 20 21 19 18 17 15 11 8 8 7 6 6 6 5 4 4 4 4 3 2 4 7 8 9 8 6 7 8 9 10 11 14 17 16 17 19 18 17 18 18 19 20 18 17 20 23 23 21 21 24 25 23 21 22
25 26 26 25 25 27 30 31 29 25 22 20 22 23 23 23 23 22 20 20 19 17 18 18 17 18 19 18 17 15 15 20 22 20 18 17 16 12 9 8 8 7 7 7 6 6 5 3 4 4 3 4 6 7 8 8 6 6 8 9 10 11 14 17 16 16 18 18 17 17 17 17 17 16 17 19 20 20 20 20 22 24 23 22 23
25 25 25 26 28 29 31 33 32 26 22 22 24 24 21 21 21 19 17 17 18 17 17 17 17 18 18 17 17 16 14 19 23 22 18 18 17 13 10 9 9 9 8 8 7 7 6 4 2 2 3 4 4 6 7 8 7 6 7 8 9 10 15 17 16 15 16 16 16 15 15 16 17 17 18 19 19 19 19 19 21 22 22 22 23
25 28 30 30 30 30 31 33 32 26 23 24 24 20 18 18 19 18 16 16 17 17 17 16 16 17 17 16 17 16 14 17 22 22 20 18 18 16 11 9 10 9 9 9 8 7 7 6 3 1 2 2 3 4 4 5 6 5 5 8 9 11 15 16 15 14 14 14 14 14 14 16 17 18 19 20 20 20 20 20 21 21 21 22 22
29 33 32 29 28 29 31 33 33 27 24 24 22 18 17 18 18 17 16 15 16 16 16 16 16 16 16 15 16 16 15 17 20 22 22 20 19 19 13 9 10 11 9 9 8 7 6 6 5 3 0 1 1 2 2 4 5 4 5 8 10 12 15 14 12 13 13 13 14 14 14 15 16 17 19 20 21 21 21 22 22 21 21 21 21
28 31 30 29 29 31 33 34 33 28 25 24 21 18 18 17 17 17 16 15 16 16 16 16 16 16 16 15 15 15 15 17 19 21 23 21 20 21 16 10 11 12 9 8 8 7 6 6 5 3 1 1 1 1 2 3 3 5 7 9 11 12 12 10 11 12 13 13 14 14 14 15 16 17 19 20 20 21 22 23 23 22 21 21 20
25 28 31 32 32 31 31 31 28 25 25 25 21 18 18 18 17 17 16 15 16 16 16 16 16 15 16 15 15 14 14 16 19 21 22 21 21 23 19 14 15 14 9 7 8 7 6 7 6 3 1 1 2 2 3 3 4 6 8 10 11 10 9 9 10 12 12 13 14 14 15 16 16 17 18 19 19 19 21 23 23 22 22 22 21
27 31 32 32 30 27 26 25 23 23 25 24 20 18 19 19 17 17 16 16 17 16 17 17 16 16 16 15 15 15 14 13 16 20 22 22 22 23 21 17 17 16 10 6 7 8 8 8 6 3 2 2 3 3 3 5 7 7 8 9 9 8 8 9 11 12 12 13 13 14 15 16 17 17 18 18 18 18 20 22 22 21 22 22 22
32 34 31 28 27 24 23 23 22 21 22 21 19 19 19 19 18 18 17 17 17 17 17 17 16 16 16 15 15 15 15 14 14 17 21 22 21 22 21 18 18 17 13 8 9 10 9 8 5 4 4 4 4 4 5 6 7 7 7 7 7 7 7 9 10 11 12 12 13 15 15 16 17 17 17 18 18 18 19 21 21 21 21 21 22
33 32 27 26 26 25 24 23 21 21 22 21 19 18 19 19 19 18 18 18 17 17 17 17 17 16 16 16 16 15 15 15 15 16 19 20 19 20 20 18 18 17 15 11 10 10 9 7 6 5 5 5 6 6 6 5 5 6 6 6 6 6 7 9 10 10 10 12 14 14 15 16 17 17 18 18 19 19 19 20 20 20 21 20 20
31 26 24 27 30 28 27 27 23 20 22 21 18 18 19 19 19 18 18 18 17 17 17 17 17 16 16 16 16 16 16 16 17 18 19 19 18 18 18 17 17 17 15 13 11 10 9 8 7 7 8 8 8 8 7 6 6 5 5 5 6 7 8 9 9 8 9 11 13 13 14 16 16 17 18 19 19 19 19 19 19 20 20 20 20
29 24 23 27 27 25 26 28 25 21 21 21 19 18 19 19 18 18 17 17 16 15 16 16 16 16 16 16 16 16 17 17 18 19 20 20 19 17 17 17 16 16 16 15 12 10 9 9 9 9 9 9 8 7 6 5 5 5 4 5 6 6 7 8 8 8 9 11 12 12 14 15 16 16 17 19 19 18 18 19 19 19 19 19 20
26 22 23 25 24 23 25 27 23 20 21 21 19 18 19 20 20 18 17 18 18 16 14 14 15 15 14 14 15 15 15 17 19 21 22 23 22 20 18 18 17 15 16 16 12 9 9 9 9 9 9 8 7 6 5 5 5 6 5 5 6 6 6 7 7 8 10 10 10 12 13 14 15 16 17 18 18 18 18 19 19 19 19 20 20
24 22 23 24 25 25 25 24 22 21 21 21 19 18 19 20 21 20 17 18 20 20 17 15 15 15 13 12 13 14 14 15 17 19 21 23 24 23 20 19 18 15 14 14 12 10 9 9 9 8 8 8 7 6 6 6 6 6 6 6 6 6 6 7 7 8 9 9 10 11 12 12 14 15 15 16 17 17 18 18 18 19 19 19 20
24 23 23 24 27 27 23 21 22 22 21 21 21 21 19 18 20 22 20 18 20 22 21 18 17 17 16 13 12 15 15 14 13 15 17 18 22 23 22 20 18 16 14 13 12 10 10 10 9 9 8 8 7 7 7 7 7 7 7 6 6 6 6 6 6 8 9 9 9 11 11 12 13 14 14 15 15 16 17 17 17 18 19 19 20
23 23 24 25 29 29 24 22 23 23 22 22 23 24 22 19 20 22 21 19 20 22 22 21 19 20 20 17 15 15 17 15 12 12 14 15 18 21 22 20 18 17 15 13 12 11 11 10 9 9 9 8 8 7 7 7 7 7 7 7 7 7 6 6 7 7 8 9 10 10 11 11 13 14 14 14 15 15 16 16 17 18 18 18 20
26 26 28 30 32 31 26 24 24 22 22 22 23 24 23 20 19 19 19 18 19 21 23 25 25 24 23 22 19 17 17 16 14 11 11 12 14 18 21 21 19 18 16 15 13 13 12 10 9 9 9 8 8 7 7 7 8 8 8 8 7 7 6 6 6 7 8 9 10 11 11 12 13 13 13 14 14 14 15 15 16 17 17 17 19
29 28 29 31 31 27 24 24 24 22 21 21 21 22 22 20 19 18 18 18 18 19 21 25 28 28 26 24 23 21 18 16 15 12 11 11 12 15 19 20 19 18 18 17 16 15 13 11 10 10 9 8 8 8 8 8 8 8 9 8 8 7 7 7 7 7 8 10 11 12 12 12 12 12 13 14 14 14 14 14 15 15 15 16 16
28 27 28 30 28 24 22 23 23 22 21 20 19 19 19 19 18 17 17 18 19 19 18 19 25 29 27 24 25 23 19 17 15 13 12 12 12 15 18 18 16 15 16 17 17 17 15 13 11 10 9 9 9 8 8 9 9 9 9 9 8 8 8 7 7 8 9 11 13 14 14 13 13 13 13 13 14 14 14 14 14 14 14 14 15
25 27 31 32 27 22 21 22 22 23 23 20 18 18 18 17 18 18 17 17 18 19 17 17 21 25 27 26 26 24 21 18 16 14 14 14 14 16 17 16 15 15 15 15 16 16 15 14 12 11 10 10 9 9 9 9 10 10 10 10 10 9 9 9 10 12 13 14 15 15 14 13 13 12 12 13 13 14 14 14 14 14 14 14 15
23 27 33 33 28 24 22 20 21 23 23 20 17 17 17 17 18 18 18 18 18 19 17 17 20 25 29 29 28 24 22 19 17 16 17 17 17 19 18 16 14 15 14 13 14 14 14 13 12 11 11 10 10 10 10 10 10 11 11 11 10 10 10 12 13 13 14 14 14 14 14 13 13 13 13 13 14 14 14 14 14 14 15 14 14
19 24 30 32 28 24 21 20 21 23 21 19 18 17 17 17 18 19 18 17 17 18 17 16 18 22 25 27 27 25 21 19 18 19 20 20 20 21 21 18 15 15 14 13 13 13 13 12 11 11 11 10 10 10 10 10 11 11 11 11 11 11 11 12 12 12 12 13 13 14 14 14 14 13 13 13 13 14 14 14 14 15 15 15 15
17 22 28 30 28 25 22 22 24 23 20 19 19 18 17 18 19 19 18 17 17 17 16 15 16 17 18 22 26 26 23 20 20 21 21 22 22 23 21 19 17 15 15 15 14 14 14 13 12 11 11 11 10 10 10 11 11 11 12 12 12 12 12 13 13 13 13 13 13 14 14 13 12 12 12 12 13 14 14 15 15 15 15 15 15
15 21 27 29 27 24 21 22 24 22 20 19 18 17 17 18 18 17 17 16 16 16 16 15 15 15 17 22 24 24 22 21 22 21 21 23 24 23 22 21 21 20 17 16 16 16 15 14 13 12 12 11 11 11 11 11 11 12 12 12 12 13 14 14 14 14 14 13 13 12 11 11 11 12 13 13 14 13 13 14 14 15 15 15 15
16 21 26 28 26 22 20 21 23 22 20 19 18 16 16 16 16 16 15 14 14 15 16 17 16 15 18 22 23 21 20 19 18 19 21 22 24 24 24 25 25 23 20 18 17 16 16 15 14 13 13 12 12 12 12 12 12 12 13 13 13 14 14 14 15 15 14 13 12 11 11 12 13 13 14 14 14 13 13 13 14 15 15 15 15
17 22 26 28 28 24 21 19 19 19 19 19 17 15 15 15 15 15 14 14 14 15 16 17 16 14 16 20 22 21 20 17 15 16 18 19 20 23 24 24 23 22 20 18 17 16 16 15 15 15 14 14 13 13 13 13 13 13 13 14 14 14 15 16 17 16 14 13 12 10 11 12 13 13 14 14 14 14 14 15 14 14 14 14 14
16 20 24 26 26 24 22 21 20 19 20 20 17 15 14 14 14 14 14 14 14 15 16 17 15 14 16 19 21 20 20 19 17 17 18 18 18 18 19 20 20 19 17 17 18 19 19 18 18 19 19 17 16 16 15 15 15 15 15 15 15 15 16 16 16 14 13 13 13 12 11 12 12 13 14 15 14 14 15 15 14 14 14 15 15
14 16 19 20 19 18 19 20 21 21 21 20 16 14 14 14 13 13 14 14 14 15 16 15 13 13 16 19 20 20 20 21 21 21 22 22 20 18 18 19 19 18 18 19 20 20 21 21 22 23 22 21 20 19 18 18 17 17 16 16 16 17 17 16 16 17 17 16 14 13 12 12 13 14 15 16 16 15 15 16 16 15 15 15 16
14 14 16 17 16 16 17 17 18 19 20 19 16 14 14 14 14 13 14 14 14 16 16 13 12 14 16 18 19 20 20 20 21 22 23 23 21 20 21 21 20 19 19 20 20 21 22 22 23 23 22 21 20 19 19 20 19 17 16 16 16 16 16 16 17 19 19 17 15 13 12 12 14 15 17 18 18 16 16 17 18 18 17 16 16
15 16 17 17 16 15 15 15 17 18 19 18 17 15 14 14 14 14 14 15 17 18 17 14 13 14 15 15 16 19 21 20 20 21 23 23 22 22 22 21 19 18 19 20 20 21 22 21 21 21 20 19 19 19 20 19 17 15 15 15 14 13 14 16 17 17 16 14 14 15 14 15 15 15 16 16 16 16 15 16 17 17 17 16 16
16 18 19 17 15 14 13 14 16 18 17 15 15 14 14 14 15 14 14 16 18 18 16 14 13 15 16 16 17 18 20 20 19 20 21 22 21 20 20 19 18 18 20 20 21 21 20 19 18 18 17 18 18 19 19 19 19 17 15 13 14 16 18 18 17 15 14 14 15 16 17 17 18 18 18 18 18 18 17 16 16 16 16 15 16
15 17 19 17 14 13 13 13 15 16 16 14 14 15 14 14 14 13 14 17 19 18 17 16 17 18 20 20 21 20 18 17 17 18 19 20 19 19 19 19 19 19 20 21 20 19 18 17 17 18 18 18 18 18 19 20 20 17 14 14 17 20 20 18 15 15 15 15 15 16 16 16 17 18 18 19 19 19 18 17 16 15 15 15 15
13 15 17 16 14 13 13 13 14 16 16 15 14 14 14 13 13 13 13 15 17 18 17 17 18 18 18 18 18 18 17 16 16 16 17 18 19 19 20 20 20 20 20 19 19 18 18 18 18 18 18 18 18 18 18 18 16 15 15 17 19 20 18 15 15 15 15 15 15 14 14 14 15 16 16 15 14 15 15 14 14 14 14 14 15
12 12 13 13 13 13 13 12 13 14 14 14 14 14 15 16 15 14 13 14 15 15 15 16 17 16 15 14 14 14 14 14 13 14 15 16 17 17 18 19 18 18 17 17 17 17 17 17 17 17 17 17 17 15 13 13 15 17 18 19 18 17 16 15 15 14 14 14 14 13 12 12 13 13 13 12 11 11 12 13 14 14 14 14 14
Wind_Direction
158 164 170 163 157 158 160 167 177 177 172 169 165 159 152 147 147 149 146 142 142 142 141 142 141 138 135 132 132 131 131 131 129 128 127 124 122 121 121 120 115 112 110 105 100 94 87 83 79 74 69 65 59 55 53 50 48 45 40 35 29 17 1 349 336 331 336 339 333 331 335 335 334 336 337 335 334 335 335 336 340 342 339 336 333
162 165 167 161 156 156 160 171 178 175 170 168 164 158 152 149 151 150 145 142 143 143 144 143 142 140 137 137 137 136 136 134 133 133 131 128 126 126 127 125 119 115 111 105 99 94 89 85 81 74 67 61 57 51 47 45 44 40 37 31 22 13 360 346 336 330 331 337 338 335 337 339 337 338 339 338 336 335 336 338 341 342 340 337 334
163 161 162 159 154 155 162 171 175 174 172 169 163 157 153 153 156 151 143 144 145 145 146 145 144 143 142 141 139 139 139 136 136 137 135 133 132 132 132 128 122 117 111 106 103 98 93 87 80 73 67 62 56 50 43 40 40 34 28 25 15 4 354 343 336 331 329 333 338 339 339 340 339 339 341 340 339 337 337 339 339 340 341 339 336
163 161 161 159 158 161 167 171 174 173 171 168 164 159 156 158 160 152 145 146 145 146 148 147 147 146 144 144 142 142 141 139 140 139 137 138 136 135 133 127 122 116 111 108 106 101 94 86 79 71 66 60 53 47 41 37 37 31 22 16 10 0 351 343 338 334 331 331 336 339 339 340 340 340 342 342 341 340 339 338 337 338 341 340 337
159 159 158 156 160 168 172 174 174 171 169 168 166 161 158 161 161 153 147 148 147 148 150 149 151 150 148 148 146 144 145 144 143 142 140 140 139 136 132 125 120 115 112 111 106 99 94 85 76 68 62 57 51 43 37 34 33 27 18 10 5 358 349 346 342 338 335 333 335 339 340 341 340 342 345 344 342 343 342 340 337 336 339 340 340
154 154 155 155 161 170 173 174 173 172 170 169 165 162 161 164 161 154 151 151 149 151 153 153 154 154 151 150 148 148 148 147 146 145 144 144 141 136 131 126 122 119 115 113 107 100 92 83 73 65 59 55 48 39 31 30 29 23 13 4 359 355 350 349 346 342 341 339 339 341 343 344 343 343 347 346 344 344 343 340 337 337 339 340 340
152 153 157 159 165 172 173 172 173 173 171 168 165 164 166 165 160 155 155 153 152 154 155 156 157 156 154 152 151 149 148 148 147 146 146 145 142 138 135 130 127 123 120 114 108 100 91 83 74 65 60 56 49 39 30 25 22 19 12 2 356 353 352 352 350 348 346 345 345 345 344 346 345 344 345 346 344 344 344 340 337 339 341 340 339
150 153 158 161 166 171 171 170 171 172 170 168 167 167 168 165 158 156 157 156 157 158 157 157 158 157 155 154 152 151 150 150 148 147 147 145 143 142 139 135 131 128 126 119 110 101 91 83 76 70 63 57 51 43 36 30 23 16 10 4 358 355 355 354 354 354 351 348 349 348 345 347 348 345 344 346 346 345 343 339 336 339 341 340 340
151 154 159 163 167 169 169 169 170 171 169 168 168 168 168 164 157 157 159 159 160 160 159 160 160 159 158 156 154 155 154 154 154 152 148 144 145 143 140 138 136 134 132 125 115 104 94 86 80 76 65 54 50 46 40 35 31 22 11 6 3 359 359 358 357 356 352 351 352 350 348 349 349 347 347 349 346 340 337 336 335 337 339 339 341
152 156 158 161 165 167 168 168 169 170 170 169 170 170 167 162 160 161 161 161 162 161 161 163 163 162 161 158 158 160 159 160 161 157 152 148 146 143 140 139 137 139 138 129 119 109 102 97 88 72 56 45 41 41 39 37 36 31 24 21 16 8 2 359 359 357 351 351 353 351 350 350 349 348 347 346 342 337 336 337 336 337 338 339 340
155 157 158 160 164 166 167 168 169 170 171 171 171 170 167 163 163 163 163 163 163 163 165 167 167 166 164 162 163 163 165 172 169 162 156 151 146 142 139 136 138 144 143 133 125 118 111 109 99 70 51 41 30 26 28 31 35 36 33 31 28 24 17 6 360 356 350 350 352 351 351 348 346 348 347 344 342 339 337 337 337 338 340 341 341
155 158 161 163 165 166 167 168 168 170 172 173 172 170 167 167 166 166 166 165 165 166 168 169 168 168 166 165 165 165 171 176 171 163 159 153 147 143 138 136 140 146 143 134 127 124 120 116 107 78 56 51 37 17 12 13 19 23 23 23 22 23 24 19 8 358 347 343 347 350 350 345 343 347 347 343 339 338 338 339 341 340 339 340 342
155 158 162 164 163 164 167 167 168 170 173 174 172 169 169 170 169 168 167 166 167 168 170 171 171 171 168 167 166 165 171 174 169 163 162 157 150 143 138 137 140 139 136 130 121 121 126 119 109 85 55 45 34 18 8 2 3 10 14 15 8 5 12 13 8 1 350 339 339 344 345 342 341 344 344 340 337 337 339 340 340 339 336 338 342
153 155 158 160 161 164 167 168 169 171 172 171 171 170 171 171 171 170 169 167 167 167 167 168 168 168 168 168 167 168 174 177 172 168 168 164 154 143 138 142 140 132 132 128 119 116 116 114 104 85 65 45 30 22 14 2 359 8 16 19 13 7 10 8 3 358 350 338 335 337 337 337 338 339 342 341 339 338 336 335 336 336 337 338 339
155 155 157 160 163 166 169 171 171 171 170 171 172 172 172 172 170 169 168 167 168 169 170 171 171 170 170 169 169 175 180 180 177 178 179 175 160 146 143 155 147 134 138 134 125 123 114 109 101 81 70 45 29 28 27 18 6 7 15 17 15 17 12 6 7 8 358 342 334 331 331 338 344 344 346 347 342 337 333 331 334 335 337 338 336
157 159 161 164 166 168 171 173 171 170 170 171 171 172 172 172 173 173 172 174 176 178 179 182 183 180 177 173 172 179 185 182 180 183 186 183 173 164 164 169 159 147 151 148 139 136 123 113 101 86 79 43 25 27 39 42 17 3 13 18 16 20 7 357 2 8 5 358 352 347 345 349 351 349 349 350 347 340 334 334 339 339 338 338 341
161 164 166 168 169 169 170 171 168 168 170 171 171 173 174 175 179 179 177 177 179 179 181 183 184 183 181 177 177 180 184 183 184 188 191 188 184 184 183 178 172 164 164 166 158 142 129 121 99 84 77 43 27 28 42 50 29 5 14 19 16 19 9 356 354 355 358 1 359 353 349 346 346 345 344 346 348 346 341 341 344 342 338 340 346
165 168 170 171 169 169 171 171 168 168 170 170 170 171 173 175 177 176 173 172 174 176 179 180 182 184 185 183 183 183 183 185 188 191 191 188 188 193 193 182 180 177 173 178 176 157 135 115 98 94 87 44 33 35 44 48 29 6 14 21 18 16 6 357 352 350 355 359 353 346 344 343 342 343 340 341 347 350 347 343 343 342 341 342 347
170 171 171 171 172 175 176 175 172 168 166 168 169 170 170 171 172 172 171 172 173 174 178 180 181 185 187 186 186 185 183 189 194 193 191 189 189 196 199 187 184 185 183 183 181 172 159 120 88 86 77 49 36 37 44 46 33 11 14 21 19 11 359 353 348 344 345 346 342 339 342 344 343 344 343 343 347 350 349 346 345 344 342 342 345
170 169 169 171 176 179 179 177 175 169 164 167 169 168 167 168 171 173 175 177 177 177 180 182 181 183 185 186 188 187 187 192 196 195 193 192 193 197 202 195 189 189 191 188 181 179 180 168 123 75 56 47 37 38 40 40 38 27 17 21 19 2 353 351 346 337 330 330 334 338 343 347 348 349 349 348 350 351 349 349 347 345 343 342 344
171 172 174 175 177 179 179 179 178 172 167 168 168 165 167 171 173 175 177 179 179 179 180 180 180 182 184 185 188 190 190 192 197 198 197 196 196 198 202 201 193 190 194 194 187 183 182 175 172 140 46 37 30 36 32 29 39 38 9 11 12 356 350 349 341 331 328 332 339 344 347 351 353 353 352 351 350 350 349 348 346 344 343 344 342
175 177 176 173 175 179 180 181 179 174 168 168 167 165 169 172 174 177 180 181 178 177 178 180 180 181 183 184 186 190 191 192 196 201 201 200 200 198 199 204 199 193 194 195 190 185 177 171 182 200 108 23 359 19 9 6 19 7 344 355 358 351 351 348 333 329 334 338 342 346 350 352 353 353 353 351 348 347 345 345 344 342 342 344 342
175 176 174 172 176 180 182 181 179 175 171 170 169 169 171 172 174 179 181 179 177 177 178 180 181 181 181 182 185 188 192 194 200 204 204 205 204 199 197 202 199 194 197 197 191 184 173 170 184 200 199 347 298 297 316 327 327 316 324 342 348 348 349 340 328 332 336 337 342 346 348 350 351 350 350 347 344 344 343 341 342 342 342 343 342
171 175 177 178 179 180 181 180 177 175 176 175 172 172 173 173 175 180 182 181 180 180 180 182 184 183 181 181 184 187 188 193 204 211 209 207 204 198 198 202 198 196 204 204 191 183 177 180 187 193 207 285 285 283 296 311 306 302 316 335 345 347 339 330 332 336 334 336 342 344 345 347 347 345 344 342 339 340 342 341 340 342 342 343 342
174 177 179 179 178 176 175 175 174 176 178 178 176 176 175 176 178 182 184 185 185 184 184 185 186 186 183 181 182 183 180 181 197 208 207 202 197 195 198 204 200 198 203 206 197 193 188 187 192 200 230 271 296 294 294 304 306 309 327 341 344 336 326 329 335 334 333 337 341 340 341 344 344 341 340 338 339 342 343 342 341 342 343 343 344
176 176 175 175 175 171 168 170 174 176 177 178 180 180 178 178 181 184 187 187 187 187 186 187 188 187 185 182 180 179 177 174 183 194 196 193 192 193 198 203 203 202 207 211 204 199 193 190 196 213 236 256 272 269 265 277 292 309 330 337 329 319 320 331 334 329 329 335 336 337 339 339 339 340 340 340 344 346 345 342 341 343 344 344 344
176 174 172 171 173 172 171 171 173 173 175 179 182 183 182 183 185 188 190 189 188 189 188 189 190 188 185 184 180 176 176 176 177 181 184 186 190 194 198 203 205 207 211 214 208 201 198 200 207 222 242 253 254 250 251 263 281 298 309 307 305 307 311 321 325 322 322 329 332 335 337 338 339 341 343 345 346 346 346 344 341 342 344 344 344
175 172 172 174 175 177 177 177 174 172 176 180 184 186 187 187 189 193 194 192 190 191 190 191 192 190 186 183 180 177 180 182 180 179 179 182 185 188 192 199 202 205 208 207 201 198 200 206 214 223 233 241 244 244 246 251 260 273 288 300 306 306 305 309 312 312 320 328 331 333 336 340 343 345 346 348 347 346 347 346 343 342 344 345 346
176 172 174 177 177 177 178 179 176 174 177 180 184 189 191 190 193 198 199 198 196 194 194 195 194 191 189 185 182 182 185 187 185 181 180 182 181 182 189 194 196 203 207 199 190 192 201 207 212 216 221 228 236 241 245 251 263 274 285 296 303 309 316 318 318 321 329 329 328 331 335 338 342 345 348 349 347 346 347 347 345 345 346 347 348
174 174 176 178 179 178 178 179 177 173 176 179 183 189 192 193 196 198 200 204 205 201 198 199 196 192 190 188 189 191 190 189 189 187 186 186 182 180 189 194 195 203 207 199 195 206 212 211 214 217 222 230 235 241 250 260 273 285 290 291 299 310 319 319 321 327 328 322 321 328 331 332 338 343 347 346 343 344 347 346 346 347 348 349 349
173 176 179 181 183 182 179 179 177 176 179 183 186 188 188 189 196 199 200 204 207 204 203 203 198 193 190 185 189 194 192 190 193 196 196 196 191 186 189 195 197 202 205 202 208 222 220 215 218 220 223 231 236 243 254 259 264 278 285 290 299 303 304 310 319 324 319 315 319 323 324 328 334 337 338 336 334 338 344 346 347 348 349 350 349
175 180 182 183 186 185 180 176 176 178 183 189 191 192 187 184 193 201 203 205 207 206 207 209 206 202 198 187 182 191 195 191 192 196 198 201 200 197 196 199 203 206 207 208 218 228 221 216 220 222 223 232 238 242 251 257 264 274 278 283 292 293 295 305 313 314 312 313 317 318 317 323 326 325 326 327 328 334 340 342 346 348 348 348 347
178 180 180 181 184 185 183 179 177 180 186 191 196 200 197 191 192 198 203 207 211 210 210 215 218 218 213 201 188 190 194 188 181 184 191 196 201 202 203 205 209 212 214 218 228 236 229 221 223 224 226 233 238 242 251 259 266 272 276 280 284 284 289 299 300 300 304 304 307 309 311 316 319 319 322 326 328 332 335 336 341 346 346 346 345
186 186 185 183 183 184 184 183 183 185 190 193 198 204 205 201 194 192 193 199 206 210 213 217 222 225 223 214 199 191 189 184 177 179 186 191 197 203 206 210 214 217 221 226 234 240 236 230 229 229 230 236 241 246 254 261 266 272 274 276 279 280 287 294 294 299 306 306 307 312 314 315 317 317 320 323 325 327 329 331 337 341 342 342 343
194 193 190 187 184 182 183 184 185 187 189 191 195 200 201 199 194 191 191 195 201 206 210 213 217 221 222 216 205 198 195 193 190 190 192 194 198 202 206 211 217 222 225 229 235 241 241 236 232 232 233 238 242 245 251 257 264 270 272 273 277 280 283 287 293 303 309 309 309 310 307 306 308 309 311 316 320 322 324 328 333 334 335 336 335
195 193 191 191 188 185 184 185 186 188 189 189 190 192 192 191 192 195 199 200 202 206 207 208 213 216 215 211 207 205 205 206 207 208 209 209 208 205 205 209 217 223 225 228 232 238 242 241 238 236 237 240 244 247 250 255 261 266 271 274 275 275 278 285 294 301 303 302 303 301 296 295 299 302 303 308 315 318 320 323 326 325 325 325 323
190 192 194 194 191 190 191 189 188 191 190 186 185 187 188 189 192 197 202 202 203 205 203 195 199 206 208 208 208 210 211 214 218 221 221 218 216 212 210 212 220 225 227 229 231 234 238 239 238 238 239 241 244 247 250 255 260 264 267 267 266 269 277 284 290 295 298 299 300 298 294 290 292 295 296 298 304 311 314 316 318 318 318 317 317
189 195 198 196 192 192 193 190 190 193 191 188 189 190 190 190 193 200 206 205 200 200 198 185 183 194 202 206 208 211 215 216 217 219 220 220 217 215 214 218 227 232 232 234 235 236 239 239 237 237 239 240 243 247 252 256 260 262 262 261 262 267 275 281 284 289 292 294 296 299 301 300 299 300 301 299 299 302 305 306 308 311 313 314 317
191 197 199 197 193 191 189 188 190 191 189 190 195 196 193 194 198 202 206 203 195 194 194 185 181 189 197 202 205 207 208 208 211 216 220 219 217 215 215 219 227 234 238 241 242 243 243 241 238 236 238 241 245 249 253 257 259 259 258 258 261 266 272 279 285 291 295 298 304 308 310 307 305 305 305 303 301 301 301 300 300 302 305 308 312
191 198 200 198 195 193 191 191 192 190 187 189 194 196 195 198 201 203 204 202 196 193 193 188 186 187 191 198 204 204 201 203 210 216 219 220 218 215 214 215 220 226 233 238 243 245 244 241 238 235 235 240 245 249 255 259 259 256 254 254 258 264 271 278 285 292 296 300 305 308 308 305 303 302 301 301 302 301 299 297 296 295 297 300 303
188 198 201 199 195 193 193 194 194 192 190 190 192 195 198 199 200 203 203 200 194 191 193 197 197 194 196 204 210 209 206 209 214 215 215 218 216 212 211 215 220 224 227 232 239 242 239 237 235 235 237 241 246 252 259 262 258 254 252 252 257 266 272 277 282 285 288 291 295 299 300 301 301 300 299 300 300 297 294 295 296 297 298 299 300
187 197 198 196 193 191 191 194 195 196 195 193 195 198 199 196 197 200 200 197 194 193 198 204 204 201 205 213 217 216 213 213 213 212 211 212 214 213 215 220 227 232 234 235 238 239 237 236 236 238 241 246 250 255 260 259 255 252 250 252 259 266 271 277 282 284 286 288 289 287 288 296 302 301 299 299 296 292 291 294 294 296 298 298 298
194 199 197 194 194 194 194 193 191 192 195 196 198 202 200 196 195 196 195 195 195 195 199 205 204 201 206 214 218 217 213 208 206 206 204 204 209 215 220 227 234 238 238 237 237 237 236 237 240 243 247 251 255 257 258 255 251 250 250 253 260 265 269 276 283 287 290 290 286 278 278 288 296 296 292 291 288 286 288 290 289 290 294 296 296
191 195 194 194 194 195 196 195 193 194 197 198 199 201 200 195 193 194 194 196 199 200 205 210 206 196 201 209 212 212 211 211 211 210 208 208 211 215 219 228 234 234 231 231 236 239 241 243 248 253 258 262 263 262 259 255 252 252 255 259 263 266 269 273 278 284 287 284 279 274 272 277 282 285 287 287 285 282 282 284 284 285 289 291 292
183 185 186 188 189 190 194 197 198 199 200 200 199 201 200 197 196 198 199 199 201 204 208 211 203 194 201 210 212 212 215 218 221 221 221 222 224 223 222 225 230 232 232 235 239 244 248 252 257 263 266 268 267 264 259 255 253 254 257 262 265 268 271 273 276 282 285 281 275 270 269 272 276 281 286 289 289 285 284 286 288 287 286 286 285
174 175 180 182 185 188 191 194 195 195 196 197 198 201 201 200 199 199 197 195 198 204 208 209 207 206 211 215 218 221 223 224 225 228 231 232 230 229 229 230 231 233 236 239 243 248 255 260 265 268 269 267 263 257 253 252 253 255 257 260 263 267 270 273 278 283 285 283 277 272 268 269 273 279 284 289 290 288 286 288 289 289 287 286 284
183 187 187 185 185 189 191 191 193 195 196 198 200 201 200 197 196 197 198 202 208 214 215 213 212 212 213 214 219 226 231 230 229 233 238 238 234 231 231 232 230 232 237 243 249 255 261 265 267 267 266 261 255 250 248 250 251 254 257 260 260 260 263 270 276 280 280 278 278 279 278 277 278 280 282 284 285 284 283 283 283 284 285 284 283
197 201 199 192 187 190 193 195 197 198 198 199 200 201 201 198 197 197 201 206 211 213 212 209 209 214 218 221 225 232 237 238 236 237 240 239 235 231 230 231 232 237 244 249 254 258 262 264 262 260 258 255 252 248 247 249 251 254 258 259 257 258 265 271 276 277 275 274 275 279 281 283 286 288 288 288 289 289 289 286 284 285 286 285 284
195 200 200 195 192 196 200 199 198 198 199 201 202 202 200 197 195 196 202 210 213 213 211 212 217 224 230 234 237 239 240 238 236 235 234 233 232 231 233 236 241 245 249 252 255 257 258 258 257 256 255 255 254 252 252 254 257 259 257 255 258 264 270 273 274 277 279 279 279 280 282 284 287 291 293 294 295 295 294 292 291 291 291 290 289
188 193 196 196 195 197 199 196 194 195 197 199 198 196 193 193 194 196 202 209 213 214 214 216 221 225 229 233 236 235 232 229 229 231 232 234 236 239 241 244 246 248 249 252 254 256 256 256 257 258 259 260 261 261 261 260 259 257 254 256 261 266 269 269 273 279 285 285 285 284 283 282 284 288 291 292 293 293 293 293 294 295 294 293 291
185 189 193 193 194 195 194 193 193 195 195 194 194 194 197 198 199 199 201 205 208 210 211 214 217 219 220 221 222 221 219 221 228 233 236 237 240 242 244 245 246 247 250 252 253 254 255 258 260 263 265 265 264 261 257 252 252 253 255 258 261 262 263 268 275 282 285 286 288 289 287 285 287 291 294 295 293 292 292 294 294 294 294 292 291